Location: Newark
(44.5608°N, 0.1333°E)
Time: 09:03:19
(UTC+00:00)

N. Korean satellite - Visible Passes

Search period start: 22 January 2020 00:00
Search period end: 01 February 2020 00:00
Orbit: 454 x 507 km, 97.2° (Epoch: 21 January)

Date Brightness Start Highest point End Pass type
(mag) Time Alt. Az. Time Alt. Az. Time Alt. Az.
22 Jan 7.9 05:28:12 10° NNE 05:31:34 40° E 05:34:58 10° S visible
22 Jan 9.1 17:38:56 10° SSW 17:41:49 25° W 17:44:43 10° NW visible
23 Jan 9.3 05:03:15 10° NE 05:05:58 20° E 05:08:41 10° SE visible
23 Jan 7.5 06:36:19 10° NNW 06:39:20 27° WNW 06:42:24 10° SW visible
24 Jan 10.2 04:39:49 10° E 04:40:15 10° E 04:40:42 10° E visible
24 Jan 6.6 06:10:28 10° N 06:13:57 54° WNW 06:17:28 10° SSW visible
25 Jan 6.8 05:44:55 10° NNE 05:48:29 69° E 05:52:05 10° S visible
25 Jan 9.7 17:56:37 10° SW 17:58:47 16° W 18:00:59 10° NW visible
26 Jan 8.4 05:19:40 10° NNE 05:22:55 32° E 05:26:12 10° SSE visible
26 Jan 8.6 17:30:03 10° SSW 17:33:08 32° W 17:36:15 10° NNW visible
27 Jan 9.6 04:54:55 10° NE 04:57:17 16° E 04:59:39 10° SE visible
27 Jan 7.2 06:27:30 10° N 06:30:46 33° WNW 06:34:03 10° SW visible
28 Jan 6.4 06:01:46 10° N 06:05:21 71° WNW 06:08:58 10° SSW visible
29 Jan 7.4 05:36:18 10° NNE 05:39:51 53° E 05:43:25 10° S visible
29 Jan 9.6 17:47:29 10° SW 17:50:04 20° W 17:52:41 10° NW visible
30 Jan 8.9 05:11:10 10° NE 05:14:15 26° E 05:17:21 10° SSE visible
30 Jan 7.8 06:44:41 10° NNW 06:47:31 22° WNW 06:50:23 10° WSW visible
31 Jan 9.9 04:46:43 10° ENE 04:48:35 13° E 04:50:26 10° ESE visible
31 Jan 6.9 06:18:43 10° N 06:22:09 42° WNW 06:25:38 10° SW visible
